FIREFLY ALPHA R/B, 60210

Orbit data source: Space-Track

FIREFLY ALPHA R/B, 60210 is space debris in SSO originally from a launch on Thu, 04 Jul 2024 UTC launched from the Air Force Western Test Range (AFWTR). Debris objects in space refer to the collection of defunct objects orbiting the Earth. Examples of debris include non-operational satellites, rocket bodies, and fragments generated from explosions, collisions, or faulty payload assembly.

Loading next visibility...
Identifier
60210, 2024-125H
Orbit
SSO
Country
Flag of USUS
Related business
Manufacturer
Firefly
Mission
Spacecraft
Bus & Motor
FIREFLY A2, Unknown motor
Mass
909 kg wet, 909 kg dry
Launch date (UTC)
2024-07-04 (2 years ago)
Launch vehicle
Unknown
Launch site
Air Force Western Test Range (AFWTR)
Object type
Payload
Rocket body
Debris
Shape & HBR
Cyl, 2.9 m
Radar Cross Section
9.508 m², Large (>1 m²)

Expand to show TLE details & history
Last TLE update: 10 hours ago

TLE from 10 hours ago
0 FIREFLY ALPHA R/B
1 60210U 24125H   26171.44026104  .00040479  00000-0  39004-3 0  9994
2 60210  97.2120  35.4334 0021786 164.3157 195.8783 15.66109897110482
Epoch: 2026-06-20T10:33Z
TLE epoch observation values (Epoch: 2026-06-20T10:33:58.553Z)
Latitude
-0.00008°
Longitude
-31.71542°
Altitude
387.353 km
Speed
7.67 km/s
True Right ascension
02h 21m 44s
True Declination
0° 00' 00"
Sunlit
Object was in daylight at epoch
Visualization orbit readout
Latitude
Unknown
Longitude
Unknown
Altitude
Unknown
Speed
Unknown
Apparent Right ascension
Unknown
Apparent Declination
Unknown
Sunlit
N/A
Visualization observer readout
Local Sidereal Time
07:20:19
Azimuth
Unknown
Elevation
Unknown
Doppler factor
Unknown
Orbital elements
Apogee altitude
381.64 km
Perigee altitude
352.25 km
Semi-major axis
6,745.082 km
Eccentricity
0.00218
Inclination
97.212°
RAAN
35.4334°
Arg. of periapsis
164.3157°
True anomaly
195.81018°
Mean anomaly
195.8783°
Eccentric anomaly
195.84422°
Mean motion
3.91798 °/min
Orbital period
91.88 mins
BSTAR
0.00039004
Loading maneuver chart data...
Computing Atmospheric mass density...
Loading historical data...
Loading historical data...
Loading historical data...
Loading historical data...
Loading historical data...
Loading historical data...
Loading historical data...

Documentation

Showing up to 5 results
|